GW0500 Weather Reports


time (UTC)temp
C
wind
direction
speed
KPH
gust
KPH
rain 1hr
cm
rain 24hr
cm
rain mn
cm
humidity
%
barometer
mb
20260901203545 26 149 3.2 12.9 0.00 0.00 0.00 33 1021.4
20260901203105 26 120 3.2 12.9 0.00 0.00 0.00 31 1021.6
20260901202545 26 178 4.8 12.9 0.00 0.00 0.00 33 1021.6
20260901202050 26 130 3.2 9.7 0.00 0.00 0.00 32 1021.6
20260901201606 26 169 3.2 9.7 0.00 0.00 0.00 33 1021.8
20260901201046 25 248 3.2 12.9 0.00 0.00 0.00 33 1021.8
20260901200542 25 122 4.8 19.3 0.00 0.00 0.00 30 1021.6
20260901200110 25 117 4.8 19.3 0.00 0.00 0.00 31 1021.8
20260901195544 25 0 4.8 19.3 0.00 0.00 0.00 31 1021.7
20260901195046 25 155 3.2 17.7 0.00 0.00 0.00 31 1021.8
20260901194612 25 120 3.2 17.7 0.00 0.00 0.00 31 1021.7
20260901194044 25 162 4.8 16.1 0.00 0.00 0.00 31 1022.0
20260901193543 25 161 4.8 20.9 0.00 0.00 0.00 31 1021.8
20260901193114 25 142 6.4 20.9 0.00 0.00 0.00 30 1021.9
20260901192545 25 98 4.8 16.1 0.00 0.00 0.00 33 1021.9
20260901192045 25 173 4.8 16.1 0.00 0.00 0.00 29 1021.9
20260901191607 25 177 4.8 14.5 0.00 0.00 0.00 28 1022.0
20260901191047 25 160 3.2 14.5 0.00 0.00 0.00 29 1022.0
20260901190547 25 180 3.2 11.3 0.00 0.00 0.00 30 1022.0
20260901190113 25 130 4.8 14.5 0.00 0.00 0.00 29 1021.9
20260901185548 24 0 3.2 14.5 0.00 0.00 0.00 32 1022.0
20260901185047 24 190 4.8 16.1 0.00 0.00 0.00 31 1022.0
20260901184603 24 138 6.4 24.1 0.00 0.00 0.00 29 1022.1
20260901184048 24 130 3.2 24.1 0.00 0.00 0.00 30 1022.2
20260901183547 23 204 4.8 22.5 0.00 0.00 0.00 29 1022.1
20260901183101 23 167 3.2 12.9 0.00 0.00 0.00 30 1022.1
20260901182547 23 139 3.2 11.3 0.00 0.00 0.00 28 1022.2
20260901182048 23 166 4.8 12.9 0.00 0.00 0.00 28 1022.1
20260901181605 23 150 3.2 14.5 0.00 0.00 0.00 30 1022.2
20260901181047 22 111 4.8 14.5 0.00 0.00 0.00 29 1022.1
20260901180547 23 223 4.8 12.9 0.00 0.00 0.00 29 1022.2
20260901180106 22 225 4.8 12.9 0.00 0.00 0.00 27 1022.1
20260901175550 22 148 4.8 14.5 0.00 0.00 0.00 27 1022.2
20260901175048 22 157 6.4 14.5 0.00 0.00 0.00 26 1022.1
20260901174600 22 202 3.2 11.3 0.00 0.00 0.00 29 1022.1
20260901174048 22 147 3.2 11.3 0.00 0.00 0.00 30 1022.1
20260901173550 22 198 4.8 14.5 0.00 0.00 0.00 28 1022.2
20260901173105 22 138 3.2 14.5 0.00 0.00 0.00 30 1022.1
20260901172547 22 146 4.8 14.5 0.00 0.00 0.00 28 1022.0
20260901172050 22 213 3.2 12.9 0.00 0.00 0.00 25 1022.0
20260901171610 22 209 3.2 11.3 0.00 0.00 0.00 25 1022.0
20260901171047 22 169 3.2 11.3 0.00 0.00 0.00 29 1021.9
20260901170547 22 171 1.6 11.3 0.00 0.00 0.00 26 1021.7
20260901170106 22 192 1.6 8.0 0.00 0.00 0.00 25 1021.8
20260901165622 22 153 1.6 8.0 0.00 0.00 0.00 26 1021.7
20260901165541 22 153 1.6 8.0 0.00 0.00 0.00 26 1021.7
20260901165044 21 0 0.0 11.3 0.00 0.00 0.00 25 1021.7
20260901164602 21 181 1.6 14.5 0.00 0.00 0.00 26 1021.6
20260901164044 21 136 1.6 14.5 0.00 0.00 0.00 28 1021.6
20260901163542 21 176 3.2 11.3 0.00 0.00 0.00 25 1021.4
20260901163056 21 139 3.2 16.1 0.00 0.00 0.00 25 1021.3
20260901162547 21 167 1.6 16.1 0.00 0.00 0.00 28 1021.4
20260901162046 21 191 1.6 11.3 0.00 0.00 0.00 25 1021.3
20260901161602 20 179 1.6 11.3 0.00 0.00 0.00 26 1021.1
20260901161043 20 236 3.2 9.7 0.00 0.00 0.00 27 1021.1
20260901160545 20 178 0.0 9.7 0.00 0.00 0.00 26 1021.0
20260901160113 20 0 1.6 9.7 0.00 0.00 0.00 28 1021.0
20260901155545 19 109 3.2 9.7 0.00 0.00 0.00 28 1021.0
20260901155047 18 0 0.0 3.2 0.00 0.00 0.00 29 1021.0
20260901154603 18 201 0.0 8.0 0.00 0.00 0.00 29 1020.9
20260901154044 17 0 1.6 14.5 0.00 0.00 0.00 29 1021.0
20260901153547 17 224 3.2 14.5 0.00 0.00 0.00 31 1020.8
20260901153100 16 218 1.6 6.4 0.00 0.00 0.00 31 1020.9
20260901152545 16 0 0.0 4.8 0.00 0.00 0.00 31 1020.9
20260901152045 16 50 1.6 4.8 0.00 0.00 0.00 32 1020.9
20260901151606 16 0 1.6 4.8 0.00 0.00 0.00 32 1020.9
20260901151045 15 56 1.6 4.8 0.00 0.00 0.00 31 1020.9
20260901150544 15 0 0.0 4.8 0.00 0.00 0.00 31 1021.0
20260901150056 15 40 0.0 4.8 0.00 0.00 0.00 31 1020.9
20260901145545 15 0 0.0 4.8 0.00 0.00 0.00 30 1020.8
20260901145044 15 5 1.6 4.8 0.00 0.00 0.00 31 1020.8
20260901144602 15 194 0.0 4.8 0.00 0.00 0.00 30 1020.8
20260901144048 15 0 0.0 3.2 0.00 0.00 0.00 30 1020.8
20260901143546 15 0 0.0 3.2 0.00 0.00 0.00 31 1020.8
20260901143112 14 194 0.0 3.2 0.00 0.00 0.00 30 1020.8
20260901142546 14 194 0.0 3.2 0.00 0.00 0.00 30 1020.8
20260901142046 14 194 0.0 3.2 0.00 0.00 0.00 30 1020.8
20260901141555 14 0 0.0 3.2 0.00 0.00 0.00 31 1020.7
20260901141044 13 0 0.0 3.2 0.00 0.00 0.00 32 1020.7
20260901140546 13 194 0.0 3.2 0.00 0.00 0.00 31 1020.7
20260901140109 13 0 0.0 3.2 0.00 0.00 0.00 33 1020.8
20260901135545 13 0 0.0 3.2 0.00 0.00 0.00 32 1020.7
20260901135048 13 0 0.0 1.6 0.00 0.00 0.00 33 1020.6
20260901134601 13 194 0.0 1.6 0.00 0.00 0.00 32 1020.4
20260901134048 13 0 0.0 0.0 0.00 0.00 0.00 33 1020.4
20260901133548 13 0 0.0 0.0 0.00 0.00 0.00 34 1020.3
20260901133059 13 0 0.0 0.0 0.00 0.00 0.00 35 1020.3
20260901132545 13 0 0.0 0.0 0.00 0.00 0.00 35 1020.2
20260901132047 13 0 0.0 0.0 0.00 0.00 0.00 35 1020.3
20260901131603 13 0 0.0 1.6 0.00 0.00 0.00 34 1020.3
20260901131049 13 0 0.0 1.6 0.00 0.00 0.00 34 1020.2
20260901130547 13 0 0.0 1.6 0.00 0.00 0.00 35 1020.3
20260901130108 13 0 0.0 1.6 0.00 0.00 0.00 33 1020.2
20260901125546 13 0 0.0 1.6 0.00 0.00 0.00 32 1020.2
20260901125049 13 0 0.0 1.6 0.00 0.00 0.00 34 1020.2
20260901124600 13 0 0.0 1.6 0.00 0.00 0.00 34 1020.2
20260901124049 13 0 0.0 1.6 0.00 0.00 0.00 33 1020.1
20260901123548 13 0 0.0 0.0 0.00 0.00 0.00 38 1020.2
20260901123122 13 0 0.0 1.6 0.00 0.00 0.00 35 1020.1
20260901122548 13 0 0.0 1.6 0.00 0.00 0.00 36 1020.2
20260901122049 13 0 0.0 0.0 0.00 0.00 0.00 38 1020.2
20260901121608 13 0 0.0 0.0 0.00 0.00 0.00 38 1020.0
20260901121047 13 0 0.0 0.0 0.00 0.00 0.00 36 1020.1
20260901120548 13 0 0.0 1.6 0.00 0.00 0.00 36 1020.1
20260901120105 13 0 0.0 1.6 0.00 0.00 0.00 36 1020.1
20260901115545 13 0 0.0 1.6 0.00 0.00 0.00 37 1020.1
20260901115045 13 0 0.0 1.6 0.00 0.00 0.00 37 1020.0
20260901114602 13 0 0.0 1.6 0.00 0.00 0.00 36 1020.1
20260901114045 13 0 0.0 1.6 0.00 0.00 0.00 36 1020.0
20260901113545 13 0 0.0 0.0 0.00 0.00 0.00 35 1020.0
20260901113107 13 0 0.0 1.6 0.00 0.00 0.00 34 1019.9
20260901112547 13 0 0.0 1.6 0.00 0.00 0.00 34 1020.0
20260901112046 13 194 0.0 1.6 0.00 0.00 0.00 34 1020.0
20260901111610 13 0 0.0 0.0 0.00 0.00 0.00 34 1020.1
20260901111050 13 0 0.0 0.0 0.00 0.00 0.00 34 1020.0
20260901110545 13 0 0.0 0.0 0.00 0.00 0.00 34 1020.1
20260901110115 13 0 0.0 0.0 0.00 0.00 0.00 35 1020.0
20260901105549 13 0 0.0 0.0 0.00 0.00 0.00 35 1020.0
20260901105045 13 0 0.0 0.0 0.00 0.00 0.00 34 1020.1
20260901104603 13 0 0.0 0.0 0.00 0.00 0.00 35 1020.2
20260901104048 13 0 0.0 1.6 0.00 0.00 0.00 36 1020.1
20260901103546 13 0 0.0 1.6 0.00 0.00 0.00 37 1020.2
20260901103111 13 0 0.0 3.2 0.00 0.00 0.00 37 1020.3
20260901102547 13 0 0.0 3.2 0.00 0.00 0.00 37 1020.3
20260901102048 13 0 0.0 0.0 0.00 0.00 0.00 37 1020.3
20260901101603 13 0 0.0 1.6 0.00 0.00 0.00 38 1020.3
20260901101047 13 0 0.0 1.6 0.00 0.00 0.00 38 1020.3
20260901100549 13 0 0.0 0.0 0.00 0.00 0.00 38 1020.4
20260901100113 13 0 0.0 0.0 0.00 0.00 0.00 38 1020.4
20260901095549 13 0 0.0 0.0 0.00 0.00 0.00 39 1020.5
20260901095045 13 0 0.0 0.0 0.00 0.00 0.00 39 1020.5
20260901094601 13 0 0.0 0.0 0.00 0.00 0.00 39 1020.5
20260901094046 13 0 0.0 0.0 0.00 0.00 0.00 41 1020.5
20260901093547 13 0 0.0 0.0 0.00 0.00 0.00 40 1020.5
20260901093111 13 0 0.0 0.0 0.00 0.00 0.00 39 1020.4
20260901092545 13 0 0.0 0.0 0.00 0.00 0.00 40 1020.5
20260901092049 13 0 0.0 0.0 0.00 0.00 0.00 40 1020.5
20260901091613 13 0 0.0 0.0 0.00 0.00 0.00 41 1020.5
20260901091045 13 0 0.0 0.0 0.00 0.00 0.00 41 1020.3
20260901090545 13 0 0.0 0.0 0.00 0.00 0.00 41 1020.3
20260901090108 13 0 0.0 0.0 0.00 0.00 0.00 41 1020.4
20260901085545 13 0 0.0 0.0 0.00 0.00 0.00 42 1020.4
20260901085049 13 0 0.0 0.0 0.00 0.00 0.00 43 1020.4
20260901084604 13 0 0.0 0.0 0.00 0.00 0.00 43 1020.5
20260901084047 13 0 0.0 0.0 0.00 0.00 0.00 44 1020.5
20260901083549 13 0 0.0 0.0 0.00 0.00 0.00 45 1020.5
20260901083106 13 0 0.0 0.0 0.00 0.00 0.00 45 1020.6
20260901082546 13 0 0.0 0.0 0.00 0.00 0.00 43 1020.6
20260901082051 13 0 0.0 0.0 0.00 0.00 0.00 42 1020.6
20260901081606 13 0 0.0 0.0 0.00 0.00 0.00 41 1020.6
20260901081048 14 0 0.0 0.0 0.00 0.00 0.00 40 1020.7
20260901080546 14 0 0.0 0.0 0.00 0.00 0.00 39 1020.7
20260901080104 14 0 0.0 0.0 0.00 0.00 0.00 39 1020.8
20260901075547 14 0 0.0 1.6 0.00 0.00 0.00 39 1020.8
20260901075049 14 0 0.0 1.6 0.00 0.00 0.00 38 1020.8
20260901074601 14 0 0.0 1.6 0.00 0.00 0.00 38 1020.8
20260901074047 14 0 0.0 0.0 0.00 0.00 0.00 38 1020.8
20260901073635 14 0 0.0 0.0 0.00 0.00 0.00 37 1020.8
20260901073102 14 0 0.0 0.0 0.00 0.00 0.00 38 1020.8
20260901072547 14 0 0.0 0.0 0.00 0.00 0.00 38 1020.8
20260901072046 14 0 0.0 1.6 0.00 0.00 0.00 38 1020.8
20260901071603 14 0 0.0 1.6 0.00 0.00 0.00 39 1020.8
20260901071045 14 0 0.0 0.0 0.00 0.00 0.00 39 1020.9
20260901070545 14 0 0.0 0.0 0.00 0.00 0.00 39 1020.8
20260901070109 14 0 0.0 0.0 0.00 0.00 0.00 40 1020.8
20260901065547 14 0 0.0 1.6 0.00 0.00 0.00 40 1020.8
20260901065047 14 0 0.0 1.6 0.00 0.00 0.00 39 1020.8
20260901064609 14 0 0.0 1.6 0.00 0.00 0.00 39 1020.8
20260901064049 14 0 0.0 1.6 0.00 0.00 0.00 38 1020.9
20260901063544 14 0 0.0 1.6 0.00 0.00 0.00 37 1021.0
20260901063108 14 0 0.0 0.0 0.00 0.00 0.00 36 1021.0
20260901062551 14 0 0.0 1.6 0.00 0.00 0.00 35 1020.8
20260901062047 14 0 0.0 1.6 0.00 0.00 0.00 35 1020.9
20260901061609 13 0 0.0 0.0 0.00 0.00 0.00 34 1020.8
20260901061047 13 0 0.0 0.0 0.00 0.00 0.00 34 1020.9
20260901060543 14 0 0.0 1.6 0.00 0.00 0.00 34 1020.9
20260901060107 14 0 0.0 1.6 0.00 0.00 0.00 34 1020.8
20260901055544 14 0 0.0 0.0 0.00 0.00 0.00 33 1020.8
20260901055047 14 0 0.0 1.6 0.00 0.00 0.00 34 1020.8
20260901054608 14 0 0.0 1.6 0.00 0.00 0.00 35 1020.8
20260901054048 14 0 0.0 0.0 0.00 0.00 0.00 34 1020.9
20260901053547 14 0 0.0 0.0 0.00 0.00 0.00 34 1020.9
20260901053157 14 0 0.0 0.0 0.00 0.00 0.00 35 1021.0
20260901052547 14 0 0.0 0.0 0.00 0.00 0.00 33 1021.0
20260901052050 14 0 0.0 0.0 0.00 0.00 0.00 35 1020.9
20260901051607 14 0 0.0 1.6 0.00 0.00 0.00 36 1021.0
20260901051047 14 0 0.0 1.6 0.00 0.00 0.00 36 1020.9
20260901050552 14 0 0.0 1.6 0.00 0.00 0.00 36 1020.9
20260901045549 14 0 0.0 0.0 0.00 0.00 0.00 36 1020.9
20260901045044 14 0 0.0 0.0 0.00 0.00 0.00 36 1020.8
20260901044621 14 0 0.0 0.0 0.00 0.00 0.00 37 1020.9
20260901044049 15 0 0.0 0.0 0.00 0.00 0.00 38 1021.0
20260901043547 15 0 0.0 0.0 0.00 0.00 0.00 38 1021.0
20260901043103 15 0 0.0 0.0 0.00 0.00 0.00 40 1021.0
20260901042546 15 0 0.0 0.0 0.00 0.00 0.00 41 1021.0
20260901042047 15 0 0.0 0.0 0.00 0.00 0.00 42 1021.0
20260901041606 15 0 0.0 0.0 0.00 0.00 0.00 44 1020.9
20260901041047 15 0 0.0 1.6 0.00 0.00 0.00 46 1020.9
20260901040545 15 0 0.0 1.6 0.00 0.00 0.00 48 1020.8
20260901040109 15 0 0.0 0.0 0.00 0.00 0.00 52 1020.8
20260901035550 16 0 0.0 0.0 0.00 0.00 0.00 55 1020.8
20260901035048 16 0 0.0 0.0 0.00 0.00 0.00 59 1020.6
20260901034602 16 0 0.0 3.2 0.00 0.00 0.00 57 1020.6
20260901034047 16 0 0.0 3.2 0.00 0.00 0.00 58 1020.5
20260901033548 16 0 0.0 1.6 0.00 0.00 0.00 59 1020.4
20260901033102 16 0 0.0 0.0 0.00 0.00 0.00 60 1020.3
20260901032547 16 0 0.0 0.0 0.00 0.00 0.00 58 1020.3
20260901032048 16 0 0.0 0.0 0.00 0.00 0.00 58 1020.3
20260901031602 16 0 0.0 0.0 0.00 0.00 0.00 58 1020.3
20260901031044 17 0 0.0 0.0 0.00 0.00 0.00 57 1020.3
20260901030551 17 0 0.0 0.0 0.00 0.00 0.00 57 1020.3
20260901030104 17 0 0.0 0.0 0.00 0.00 0.00 56 1020.2
20260901025545 17 0 0.0 0.0 0.00 0.00 0.00 56 1020.2
20260901025048 17 0 0.0 0.0 0.00 0.00 0.00 56 1020.2
20260901024609 18 0 0.0 0.0 0.00 0.00 0.00 55 1020.0
20260901024046 18 0 0.0 0.0 0.00 0.00 0.00 55 1020.0
20260901023548 18 0 0.0 0.0 0.00 0.00 0.00 54 1020.0
20260901023106 18 0 0.0 0.0 0.00 0.00 0.00 53 1019.9
20260901022547 18 0 0.0 1.6 0.00 0.00 0.00 53 1019.9
20260901022045 19 0 0.0 1.6 0.00 0.00 0.00 53 1019.8
20260901021607 19 0 0.0 0.0 0.00 0.00 0.00 53 1019.7
20260901021045 20 0 0.0 0.0 0.00 0.00 0.00 52 1019.6
20260901020545 20 0 0.0 0.0 0.00 0.00 0.00 52 1019.5
20260901020105 20 0 0.0 6.4 0.00 0.00 0.00 52 1019.5
20260901015549 20 0 0.0 6.4 0.00 0.00 0.00 52 1019.5
20260901015047 20 0 0.0 6.4 0.00 0.00 0.00 51 1019.6
20260901014607 20 0 0.0 6.4 0.00 0.00 0.00 51 1019.6
20260901014047 21 178 0.0 8.0 0.00 0.00 0.00 51 1019.6
20260901013632 21 171 1.6 9.7 0.00 0.00 0.00 50 1019.6
20260901013547 21 171 1.6 9.7 0.00 0.00 0.00 50 1019.6
20260901013106 21 0 1.6 11.3 0.00 0.00 0.00 50 1019.7
20260901012626 21 186 1.6 11.3 0.00 0.00 0.00 50 1019.6
20260901012045 21 182 0.0 6.4 0.00 0.00 0.00 50 1019.6
20260901011626 21 0 0.0 4.8 0.00 0.00 0.00 52 1019.6
20260901011047 21 0 0.0 4.8 0.00 0.00 0.00 50 1019.6
20260901010547 22 0 0.0 4.8 0.00 0.00 0.00 50 1019.5
20260901010112 22 0 0.0 14.5 0.00 0.00 0.00 50 1019.5
20260901005547 22 259 3.2 14.5 0.00 0.00 0.00 50 1019.6
20260901005047 22 185 1.6 9.7 0.00 0.00 0.00 49 1019.6
20260901004611 22 159 1.6 8.0 0.00 0.00 0.00 49 1019.6
20260901004045 23 84 3.2 8.0 0.00 0.00 0.00 48 1019.7
20260901003624 23 158 1.6 14.5 0.00 0.00 0.00 49 1019.7
20260901003545 23 158 1.6 14.5 0.00 0.00 0.00 49 1019.7
20260901003110 23 137 1.6 14.5 0.00 0.00 0.00 50 1019.7
20260901002544 23 0 1.6 9.7 0.00 0.00 0.00 49 1019.8
20260901002050 23 216 1.6 9.7 0.00 0.00 0.00 49 1019.9
20260901001601 23 305 4.8 12.9 0.00 0.00 0.00 49 1019.8
20260901001048 23 203 4.8 14.5 0.00 0.00 0.00 49 1019.8
20260901000547 23 189 6.4 14.5 0.00 0.00 0.00 49 1019.8
20260831235547 24 156 3.2 12.9 0.00 0.00 0.00 48 1019.9
20260831235047 24 89 4.8 12.9 0.00 0.00 0.00 48 1020.0
20260831234605 24 109 3.2 11.3 0.00 0.00 0.00 49 1019.9
20260831234047 25 161 3.2 11.3 0.00 0.00 0.00 47 1020.0
20260831233547 25 165 3.2 14.5 0.00 0.00 0.00 47 1019.9
20260831233104 25 156 4.8 14.5 0.00 0.00 0.00 46 1019.9
20260831232546 25 156 3.2 14.5 0.00 0.00 0.00 46 1019.9
20260831232047 25 147 3.2 14.5 0.00 0.00 0.00 46 1019.9
20260831231601 25 182 1.6 12.9 0.00 0.00 0.00 45 1019.9
20260831231048 26 220 3.2 11.3 0.00 0.00 0.00 45 1019.9
20260831230548 26 188 1.6 9.7 0.00 0.00 0.00 45 1020.0
20260831230108 26 227 3.2 12.9 0.00 0.00 0.00 45 1020.2
20260831225547 25 228 4.8 17.7 0.00 0.00 0.00 45 1020.0
20260831225048 26 113 4.8 17.7 0.00 0.00 0.00 44 1020.2
20260831224602 26 179 1.6 16.1 0.00 0.00 0.00 45 1020.2
20260831224048 26 166 4.8 16.1 0.00 0.00 0.00 45 1020.2
20260831223548 26 0 1.6 14.5 0.00 0.00 0.00 45 1020.0
20260831223107 26 186 3.2 14.5 0.00 0.00 0.00 45 1020.2
20260831222549 26 146 3.2 14.5 0.00 0.00 0.00 46 1020.2
20260831222048 26 117 4.8 14.5 0.00 0.00 0.00 45 1020.2
20260831221606 26 339 3.2 17.7 0.00 0.00 0.00 45 1020.3
20260831221047 26 202 4.8 17.7 0.00 0.00 0.00 43 1020.3
20260831220547 26 192 3.2 14.5 0.00 0.00 0.00 44 1020.3
20260831220113 26 201 4.8 14.5 0.00 0.00 0.00 45 1020.1
20260831215546 26 229 4.8 16.1 0.00 0.00 0.00 43 1020.2
20260831215047 26 203 4.8 16.1 0.00 0.00 0.00 42 1020.3
20260831214627 26 170 4.8 16.1 0.00 0.00 0.00 41 1020.3
20260831214048 26 160 4.8 17.7 0.00 0.00 0.00 41 1020.3
20260831213547 26 150 4.8 17.7 0.00 0.00 0.00 41 1020.3
20260831213102 26 197 4.8 17.7 0.00 0.00 0.00 40 1020.4
20260831212544 27 142 3.2 17.7 0.00 0.00 0.00 38 1020.5
20260831212046 27 214 3.2 19.3 0.00 0.00 0.00 37 1020.6
20260831211604 27 198 4.8 19.3 0.00 0.00 0.00 36 1020.7
20260831211049 27 168 4.8 14.5 0.00 0.00 0.00 34 1020.6
20260831210550 27 79 3.2 12.9 0.00 0.00 0.00 35 1020.6
20260831210109 27 188 1.6 12.9 0.00 0.00 0.00 36 1020.7
20260831205548 26 146 4.8 12.9 0.00 0.00 0.00 36 1020.8
20260831205045 26 204 3.2 17.7 0.00 0.00 0.00 37 1020.7
20260831204635 26 136 4.8 17.7 0.00 0.00 0.00 34 1021.0
20260831204050 27 215 4.8 17.7 0.00 0.00 0.00 33 1021.0